Content
SEND FEEDBACK

Daily
Averages
Monthly
Summary
New Caledonia

NASSANDOU, NEW CALEDONIA


Home > Oceania > New Caledonia
Elevation: 46 feet     Latitude: 22 01N     Longitude: 166 13E

WEATHER
 
SELECT A DAY
Number of Records: 196,628;   Date Range: 9/1/96 - 7/20/14
 
SHARE

PRINT THIS DATA

[ ← Previous Day ]
WEATHER ALMANAC - FEBRUARY 13, 2013
[ Next Day → ]
[ °C ]   °F
Weather ElementAverageHighLow
Temperature78.5 °F87.8 °F (12:30 pm)68 °F (6:00 am)
Dewpoint64.5 °F69.8 °F (2:30 pm)62 °F (11:00 am)
Humidity62.5 %88 % (6:00 am)38 % (11:00 am)
Barometer29.87 in29.92 in (9:30 pm)29.80 in (5:00 pm)
Wind Speed5 mph12.7 mph (12:00 pm)
Weather ElementAverage
Visibility8.6 mi
Wind DirectionENE (74.5 °)

Weather ElementTotal
Precipitation---
Cooling Degree Days12.9 (Base 65)
Growing Degree Days27.9 (Base 50)
Averaged from 51 records on February 13, 2013
WEATHER CONDITIONS BREAKOUT
WIND DIRECTION BREAKOUT
WEATHER BY HOUR - FEBRUARY 13, 2013
[ °C ]   °F
Local TimeTemperatureDewpointHumidityBarometerVisibilityWind DirectionWind SpeedGust SpeedPrecipitationEventsConditions
12:30 AM73.4 °F64.4 °F73 %29.86 in6.2 miVariable2.3 mph
1:00 AM71.6 °F64.4 °F78 %29.86 in6.2 miVariable2.3 mph
1:30 AM71.6 °F64.4 °F78 %29.86 in6.2 miESE (120°)4.6 mph
2:00 AM71.6 °F62.6 °F73 %29.86 in6.2 miVariable2.3 mph
2:30 AM71.6 °F62.6 °F73 %29.83 in6.2 miCalm
3:00 AM71.6 °F62.6 °F73 %29.83 in6.2 miCalmMostly Cloudy
3:30 AM71.6 °F62.6 °F73 %29.83 in6.2 miCalmMostly Cloudy
4:00 AM69.8 °F62.6 °F78 %29.83 in6.2 miCalmOvercast
4:30 AM69.8 °F62.6 °F78 %29.83 in6.2 miESE (120°)4.6 mph
5:00 AM70.0 °F64.0 °F75 %29.85 in37.0 miNNE (30°)1.2 mphClear
5:00 AM69.8 °F64.4 °F83 %29.83 in6.2 miCalm
5:30 AM69.8 °F62.6 °F78 %29.83 in6.2 miCalm
6:00 AM68.0 °F64.4 °F88 %29.86 in6.2 miVariable2.3 mph
6:30 AM69.8 °F64.4 °F83 %29.86 in6.2 miESE (120°)3.5 mphOvercast
7:00 AM69.8 °F64.4 °F83 %29.89 in6.2 miVariable3.5 mph
7:30 AM73.4 °F64.4 °F73 %29.89 in6.2 miEast (100°)3.5 mph
8:00 AM75.2 °F64.4 °F69 %29.89 in6.2 miCalm
8:30 AM78.8 °F64.4 °F61 %29.89 in6.2 miVariable2.3 mph
9:00 AM80.6 °F64.4 °F58 %29.89 in6.2 miSE (140°)3.5 mph
9:30 AM82.4 °F62.6 °F51 %29.89 in6.2 miEast (100°)4.6 mph
10:00 AM82.4 °F64.4 °F54 %29.89 in6.2 miSSE (150°)8.1 mph
10:30 AM82.4 °F62.6 °F51 %29.89 in6.2 miSSE (150°)8.1 mph
11:00 AM84.0 °F62.0 °F38 %29.90 in37.0 miSE (140°)5.8 mphClear
11:00 AM84.2 °F62.6 °F48 %29.89 in6.2 miVariable5.8 mph
11:30 AM86.0 °F62.6 °F45 %29.89 in6.2 miSouth (190°)4.6 mph
12:00 PM86.0 °F62.6 °F45 %29.89 in6.2 miSouth (190°)12.7 mphMostly Cloudy
12:30 PM87.8 °F62.6 °F43 %29.86 in6.2 miSouth (180°)9.2 mphScattered Clouds
1:00 PM86.0 °F66.2 °F51 %29.86 in6.2 miSouth (190°)11.5 mphMostly Cloudy
1:30 PM84.2 °F68.0 °F58 %29.86 in6.2 miSouth (190°)9.2 mphOvercast
2:00 PM84.2 °F68.0 °F58 %29.83 in6.2 miSSE (150°)8.1 mphOvercast
2:30 PM84.2 °F69.8 °F62 %29.83 in6.2 miSouth (170°)9.2 mphMostly Cloudy
3:00 PM84.2 °F68.0 °F58 %29.83 in6.2 miSE (140°)11.5 mphOvercast
3:30 PM84.2 °F68.0 °F58 %29.83 in6.2 miESE (120°)9.2 mphMostly Cloudy
4:00 PM86.0 °F68.0 °F55 %29.83 in6.2 miSE (140°)6.9 mph
4:30 PM86.0 °F68.0 °F55 %29.83 in6.2 miESE (120°)6.9 mph
5:00 PM85.0 °F67.0 °F46 %29.82 in37.0 miSSE (150°)5.8 mphClear
5:00 PM84.2 °F68.0 °F58 %29.80 in6.2 miSSE (150°)5.8 mphMostly Cloudy
5:30 PM84.2 °F66.2 °F55 %29.83 in6.2 miSSE (150°)5.8 mphOvercast
6:00 PM82.4 °F66.2 °F58 %29.83 in6.2 miENE (60°)4.6 mphOvercast
6:30 PM82.4 °F64.4 °F54 %29.86 in6.2 miNNE (20°)4.6 mphOvercast
7:00 PM80.6 °F64.4 °F58 %29.86 in6.2 miNNE (30°)5.8 mphMostly Cloudy
7:30 PM80.6 °F64.4 °F58 %29.86 in6.2 miNNE (30°)5.8 mphMostly Cloudy
8:00 PM80.6 °F64.4 °F58 %29.89 in6.2 miNE (40°)6.9 mphMostly Cloudy
8:30 PM80.6 °F62.6 °F54 %29.89 in6.2 miNNE (30°)6.9 mphOvercast
9:00 PM78.8 °F62.6 °F57 %29.89 in6.2 miNNE (30°)5.8 mphOvercast
9:30 PM78.8 °F62.6 °F57 %29.92 in6.2 miNNE (30°)5.8 mphMostly Cloudy
10:00 PM78.8 °F64.4 °F61 %29.92 in6.2 miNE (40°)5.8 mphOvercast
10:30 PM78.8 °F62.6 °F57 %29.92 in6.2 miNNE (30°)4.6 mphOvercast
11:00 PM76.0 °F65.0 °F61 %29.92 in37.0 miNNE (30°)4.6 mphClear
11:00 PM75.2 °F64.4 °F69 %29.92 in6.2 miNNE (30°)4.6 mphOvercast
11:30 PM75.2 °F64.4 °F69 %29.92 in6.2 miVariable3.5 mphMostly Cloudy
Hourly data recorded from NWWW, located miles away from Nassandou, New Caledonia







STORIES FROM OUR PARTNERS